Showing default

NIMBUS 2, 2173

Orbit data source: Space-Track

NIMBUS 2, 2173 is a payload satellite owned by GSFC (US) in SSO that was launched on Sun, 15 May 1966 UTC via a THOR SLV-2A AGENA B launch vehicle from the Air Force Western Test Range (AFWTR). Payload-class satellites include a variety of spacecraft equipped with specific instruments for various scientific and technological missions. These include communications satellites like Starlink; space stations such as the ISS; scientific satellites like the Hubble; Earth observation satellites from companies like Planet Labs, Umbra, and HawkEye 360; GPS; miniature CubeSats for education and research; and military/defense satellites.

Loading next visibility...
Identifier
2173, 1966-040A
Orbit
SSO
Last TLE update
14 hours ago
Origin
Manufacturer
GE/MSVD
Mission
Non-operational Civil Weather
Bus & Motor
NIMBUS, Unknown motor
Mass
414 kg wet, 414 kg dry
Launch date (UTC)
1966-05-15 (59 years ago)
Launch vehicle
THOR SLV-2A AGENA B
Launch site
Air Force Western Test Range (AFWTR)
Object type
Payload
Rocket body
Debris
Shape & HBR
Cone + 2 Pan, 3.35 m
Radar Cross Section
2.947 m², Large (>1 m²)

Expand to show TLE details & history

TLE from 14 hours ago
0 NIMBUS 2
1 02173U 66040A   25181.78929097 -.00000036  00000-0  23613-4 0  9996
2 02173 100.5691  25.2492 0055798  40.2170 331.6698 13.33697780876788
Epoch: 2025-06-30T18:56Z
TLE epoch observation values (Epoch: 2025-06-30T18:56:34.739Z)
Latitude
11.33894°
Longitude
179.87714°
Altitude
1,097.983 km
Speed
7.322 km/s
True Right ascension
01h 32m 27s
True Declination
11° 16' 33"
Sunlit
Object was in daylight at epoch
Visualization orbit readout
Latitude
-17.94413°
Longitude
-0.85547°
Altitude
1,178.76 km
Speed
7.244 km/s
Apparent Right ascension
11h 24m 42s
Apparent Declination
-34° 23' 17"
Sunlit
Object is in daylight
Visualization observer readout
Local Sidereal Time
20:06:39
Azimuth
261.895° W
Elevation
-50.657°
Doppler factor
1
Orbital elements
Apogee altitude
1,172.112 km
Perigee altitude
1,088.322 km
Semi-major axis
7,508.354 km
Eccentricity
0.00558
Inclination
100.5691°
RAAN
25.2492°
Arg. of periapsis
40.217°
True anomaly
Unknown
Mean anomaly
331.6698°
Eccentric anomaly
Unknown
Mean motion
3.336 °/min
Orbital period
107.91 mins
BSTAR
0.000023613
Loading maneuver chart data...
Loading SW <> Apogee altitude chart data...
Loading historical data...
Loading historical data...
Loading historical data...
Loading historical data...
Loading historical data...
Loading historical data...
Loading historical data...

NIMBUS 2 Visibility forecast

Observer location: undefined°, undefined°

Span
Click to sort rows by Start time (UTC) header in descending order
Start Az.
Max El. time (UTC)
Max El. Az.
Max El.
End time (UTC)
End Az.
11 mins2025-07-01 13:00:32.142Z145.693° SSE2025-07-01 13:05:32.142Z85.045° E41.225°2025-07-01 13:11:32.142Z352.493° N
7 mins2025-07-01 14:49:32.142Z231.537° WSW2025-07-01 14:52:32.142Z264.996° W20.249°2025-07-01 14:56:32.142Z307.416° NW
11 mins2025-07-02 02:06:32.142Z29.728° NE2025-07-02 02:11:32.142Z105.727° ESE39.805°2025-07-02 02:17:32.142Z178.545° S
9 mins2025-07-02 03:53:32.142Z342.931° N2025-07-02 03:57:32.142Z296.181° NW24.716°2025-07-02 04:02:32.142Z246.757° WSW
|